DW8151 Weather Reports


time (UTC)temp
C
wind
direction
speed
KPH
gust
KPH
rain 1hr
cm
rain 24hr
cm
rain mn
cm
humidity
%
barometer
mb
20260505170133 14 196 3.2 0.0 0.00 0.00 0.00 73 1013.1
20260505163141 14 242 3.2 0.0 0.00 0.00 0.00 76 1013.1
20260505160110 13 195 3.2 0.0 0.00 0.00 0.00 77 1013.0
20260505153141 13 212 4.8 0.0 0.00 0.00 0.00 79 1012.9
20260505150123 12 200 4.8 0.0 0.00 0.00 0.00 80 1012.6
20260505140122 12 225 4.8 0.0 0.00 0.00 0.00 80 1012.1
20260505130134 12 228 6.4 0.0 0.00 0.00 0.00 80 1011.9
20260505123152 12 167 3.2 0.0 0.00 0.00 0.00 79 1011.9
20260505120115 12 192 4.8 0.0 0.00 0.00 0.00 79 1011.6
20260505113126 12 189 4.8 0.0 0.00 0.00 0.00 78 1011.6
20260505110116 12 221 3.2 0.0 0.00 0.00 0.00 78 1011.5
20260505100123 12 186 4.8 0.0 0.00 0.00 0.00 77 1011.2
20260505093126 13 221 1.6 0.0 0.00 0.00 0.00 76 1011.1
20260505090137 13 229 4.8 0.0 0.00 0.00 0.00 75 1010.9
20260505083124 14 27 0.0 0.0 0.00 0.00 0.00 75 1010.6
20260505080136 14 28 1.6 0.0 0.00 0.00 0.00 72 1010.5
20260505073124 15 258 3.2 0.0 0.00 0.00 0.00 72 1010.0
20260505070138 15 211 4.8 0.0 0.00 0.00 0.00 69 1009.9
20260505063120 16 215 4.8 0.0 0.00 0.00 0.00 66 1009.4
20260505060127 17 285 0.0 0.0 0.00 0.00 0.00 63 1009.1
20260505053132 18 304 3.2 0.0 0.00 0.00 0.00 61 1009.0
20260505050117 19 282 6.4 0.0 0.00 0.00 0.00 59 1008.7
20260505040115 20 205 4.8 0.0 0.00 0.00 0.00 63 1007.7
20260505033151 20 202 6.4 0.0 0.00 0.00 0.00 61 1007.3
20260505030116 21 205 8.0 0.0 0.00 0.00 0.00 59 1006.9
20260505023116 22 184 6.4 0.0 0.00 0.00 0.00 55 1006.8
20260505020133 22 258 8.0 0.0 0.00 0.00 0.00 53 1007.0
20260505013118 23 195 6.4 0.0 0.00 0.00 0.00 52 1007.3
20260505010137 23 206 6.4 0.0 0.00 0.00 0.00 52 1007.3
20260505003113 23 188 6.4 0.0 0.00 0.00 0.00 50 1007.4
20260505000149 23 200 6.4 0.0 0.00 0.00 0.00 50 1007.6
20260504233115 23 254 4.8 0.0 0.00 0.00 0.00 48 1007.7
20260504230119 22 167 6.4 0.0 0.00 0.00 0.00 48 1007.9
20260504223113 22 90 6.4 0.0 0.00 0.00 0.00 51 1008.3
20260504220124 21 207 6.4 0.0 0.00 0.00 0.00 52 1008.7
20260504213111 21 184 4.8 0.0 0.00 0.00 0.00 53 1008.9
20260504210124 20 207 8.0 0.0 0.00 0.00 0.00 56 1009.4
20260504203129 19 226 6.4 0.0 0.00 0.00 0.00 58 1009.8
20260504200123 18 202 8.0 0.0 0.00 0.00 0.00 60 1010.0
20260504193130 18 232 4.8 0.0 0.00 0.00 0.00 60 1010.2
20260504190113 16 238 6.4 0.0 0.00 0.00 0.00 66 1010.5
20260504183140 16 226 6.4 0.0 0.00 0.00 0.00 68 1010.4
20260504180122 15 281 4.8 0.0 0.00 0.00 0.00 70 1010.5
20260504173125 15 197 6.4 0.0 0.00 0.00 0.00 72 1010.5